Regional Weather Roundup
Issued by NWS

Home | Current Version | Previous Version | Graphics & Text | Print | Product List | Glossary Off
Versions: 1 2 3 4 5 6 7 8 9 10 11 12 13 14 15 16 17 18 19 20 21 22 23 24 25 26 27 28 29 30 31 32 33 34 35 36 37 38 39 40 41 42 43 44 45 46 47 48 49 50

788
ASUS43 KMKX 231921
RWRWI

WISCONSIN REGIONAL WEATHER ROUNDUP
NATIONAL WEATHER SERVICE MILWAUKEE/SULLIVAN WI
200 PM CDT TUE AUG 23 2016

NOTE: "FAIR" INDICATES FEW OR NO CLOUDS BELOW 12,000 FEET WITH NO
SIGNIFICANT WEATHER AND/OR OBSTRUCTIONS TO VISIBILITY.

WIZ001-002-006>008-014>016-023>028-232000-
NORTHWEST WISCONSIN

CITY           SKY/WX    TMP DP  RH WIND       PRES   REMARKS
SUPERIOR ARPT  MOSUNNY   85  68  57 S15       29.87S HX  88
ASHLAND        SUNNY     84  66  54 S16G28    29.92S HX  86
HAYWARD        SUNNY     82  65  56 S16G24    29.95F HX  84
SIREN          SUNNY     83  65  53 S13G18    29.92S HX  85
CUMBERLAND     MOSUNNY   79  63  57 S14G21    29.96F HX  80
RICE LAKE      MOSUNNY   81  66  61 S12       29.98F HX  83
CHETEK         NOT AVBL
LADYSMITH      MOSUNNY   79  64  59 S15G21    30.02F HX  81
EAU CLAIRE     MOSUNNY   82  64  54 S13G22    29.97F HX  83
MENOMONIE      MOSUNNY   82  66  58 S14G20    29.97S HX  83
NEW RICHMOND   MOSUNNY   81  65  58 S17G24    29.95R HX  83
OSCEOLA        MOSUNNY   83  67  59 S15G23    29.95S HX  86
$$

WIZ003>005-009-010-017-018-232000-
NORTH CENTRAL WISCONSIN

CITY           SKY/WX    TMP DP  RH WIND       PRES   REMARKS
MANITOWISH WTR NOT AVBL
ARBOR VITAE    SUNNY     82  65  55 S17G24    30.03S HX  84
WOODRUFF       SUNNY     82  65  55 S17G24    30.03S HX  84
RHINELANDER    SUNNY     79  64  60 S12G24    30.06S HX  81
EAGLE RIVER    SUNNY     80  58  46 S10G21    30.03F HX  80
LAND O LAKES   SUNNY     80  60  49 S7G17     30.04S HX  81
PHILLIPS       MOSUNNY   79  66  63 S14G22    30.01F HX  81
TOMAHAWK       SUNNY     79  65  62 S6        30.05F HX  81
MEDFORD        MOSUNNY   76  64  65 S13G23    30.05F
MERRILL        MOSUNNY   78  65  63 S10G18    30.06F HX  80
$$

WIZ029-030-035-036-043>047-232000-
CENTRAL WISCONSIN

CITY           SKY/WX    TMP DP  RH WIND       PRES   REMARKS
WAUSAU         CLOUDY    78  62  57 S14       30.05F HX  80
MOSINEE        SUNNY     79  63  57 S14G22    30.08F HX  80
MARSHFIELD     MOSUNNY   81  63  54 S15G24    30.05F HX  82
STEVENS POINT  CLOUDY    79  61  54 S14G23    30.08F HX  80
WAUPACA        PTSUNNY   82  62  50 S12       30.09F HX  83
WAUTOMA        PTSUNNY   79  64  60 S10G21    30.09F HX  81
WISC RAPIDS    PTSUNNY   80  64  58 SW13      30.08F HX  82
CAMP DOUGLAS   MOSUNNY   81  64  57 S8G17     30.06F HX  82
$$

WIZ011>013-019>022-031-037>040-048>050-232000-
NORTHEAST WISCONSIN

CITY           SKY/WX    TMP DP  RH WIND       PRES   REMARKS
ANTIGO         CLOUDY    78  63  59 S13       30.08F
SHAWANO        CLOUDY    83  63  51 S9        30.08F HX  84
OCONTO         NOT AVBL
STURGEON BAY   CLOUDY    77  65  66 S15       30.10F
GREEN BAY      MOSUNNY   79  64  60 S15G24    30.09F HX  81
MANITOWOC      CLOUDY    75  61  61 S17       30.12F
APPLETON       PTSUNNY   79  57  47 SW13      30.10F HX  80
CLINTONVILLE   PTSUNNY   81  61  50 S16       30.07F HX  81
OSHKOSH        PTSUNNY   80  64  58 SW13      30.10F HX  82
$$

WIZ032>034-041-042-053>061-232000-
SOUTHWEST WISCONSIN

CITY           SKY/WX    TMP DP  RH WIND       PRES   REMARKS
LA CROSSE      MOSUNNY   84  71  65 S18G25    30.01F HX  89
SPARTA         MOSUNNY   81  65  56 S12G17    30.05F HX  83
VIROQUA        PTSUNNY   79  64  59 S13       30.06F HX  80
BOSCOBEL       MOSUNNY   83  64  52 S8G20     30.06F HX  84
PRAIRIE DU CHI MOSUNNY   82  60  48 SE12      30.04F HX  82
PLATTEVILLE    MOSUNNY   78  67  68 S16G22    30.10F HX  80
$$

WIZ056-057-062-063-064-067-068-232000-
SOUTH CENTRAL WISCONSIN

CITY           SKY/WX    TMP DP  RH WIND       PRES   REMARKS
REEDSBURG      NOT AVBL
BARABOO/DELLS  MOSUNNY   79  62  57 S14       30.09F HX  80
LONE ROCK      SUNNY     80  62  54 S16G25    30.08F HX  81
MINERAL POINT  PTSUNNY   79  63  57 S15       30.11F HX  80
MADISON        PTSUNNY   79  61  53 S17       30.10F HX  80
MIDDLETON      MOSUNNY   81  62  52 S14G20    30.11F HX  82
WATERTOWN      MOSUNNY   80  63  56 S14G21    30.12F HX  81
MONROE         PTSUNNY   79  61  53 S15G25    30.12F HX  80
JANESVILLE     PTSUNNY   81  63  54 SW14      30.13F HX  82
$$

WIZ051-052-058>065-066-070>072-232000-
SOUTHEAST WISCONSIN

CITY           SKY/WX    TMP DP  RH WIND       PRES   REMARKS
MILWAUKEE      PTSUNNY   83  59  44 S15       30.14F HX  83
WAUKESHA       MOSUNNY   75  57  53 S15G22    30.15F
MILWAUKEE/TIMM PTSUNNY   79  55  44 SW9G17    30.14F
RACINE         MOSUNNY   81  62  52 SE14      30.16F HX  82
BURLINGTON     MOSUNNY   78  60  52 SW9       30.15F HX  80
KENOSHA        PTSUNNY   81  61  50 SW13G18   30.16F HX  82
FOND DU LAC    PTSUNNY   77  63  61 S14       30.11F
SHEBOYGAN      PTSUNNY   76  63  64 S12       30.13F
WEST BEND      PTSUNNY   77  61  57 SW9G16    30.14S
JUNEAU         PTSUNNY   77  62  58 S20       30.14S
$$

LSZ147-162-232000-
LAKE SUPERIOR

STATION/POSITION TIME  TEMP    WIND        PRES    WAVE
                       AIR SEA DIR/SP/G            HT/PER
                 (UTC) (F)     (DEG/KT/KT) (MB)    (FT/S)
W MID LAKE BUOY  1850   69 67  140/  4/  6 1012.3F   1/ 4
DEVILS ISLAND    1900   81     180/  9/ 14 1011.8F
SAXON HARBOR     1800   84     200/ 10/ 17 1012.9
$$

LMZ867-665-643>646-232000-
LAKE MICHIGAN

STATION/POSITION TIME  TEMP    WIND        PRES    WAVE
                       AIR SEA DIR/SP/G            HT/PER
                 (UTC) (F)     (DEG/KT/KT) (MB)    (FT/S)
CHAMBERS ISLAND  1800   77     200/  7/ 14 1019.0S
S GREEN BAY BUOY 1900   76 74  210/ 16/ 17 1018.2F
N MID LAKE BUOY  1850   72 71  200/ 17/ 21 1018.3F   5/ 6
NORTHPORT PIER   1800   75     150/  8/ 13 1018.6F
SISTER BAY       1807   81     180/ 12/ 16   N/A
KEWAUNEE LAKESHO 1800   66     180/ 12/ 14 1019.8F
SHEBOYGAN LAKESH 1800   66     180/ 16/ 17 1020.9F
PORT WASHINGTON  1800   72     190/  5/ 13 1021.3F
ATWATER BUOY     1900   69 61  160/ 14/ 17   N/A
MILWAUKEE LAKESH 1810   71     150/ 14/ 20   N/A
S MID LAKE BUOY  1850   74 75  170/ 17/ 19 1021.3F   3/ 4
KENOSHA   LAKESH 1900   74     160/ 13/ 17 1020.3F
$$

TC  - TEMPERATURE IN CELSIUS
VSB - VISIBILITY IN STATUTE MILES
WCI - WIND CHILL INDEX
HX  - HEAT INDEX





USA.gov is the U.S. government's official web portal to all federal, state and local government web resources and services.